Tampa, FL

8:54 PM EST on December 11, 2017 (GMT -0500)
Tampa International

Weather History for KTPA - August, 2014

Change the Weather History Date:

Saturday, August 9, 2014

  Actual Average Record
Temperature  
Mean Temperature 85 °F 83 °F  
Max Temperature 91 °F 90 °F 97 °F (1993)
Min Temperature 78 °F 76 °F 68 °F (1904)
Degree Days  
Heating Degree Days 0 0  
Month to date heating degree days 0 0  
Since 1 June heating degree days 0 0  
Since 1 July heating degree days 0 0  
Cooling Degree Days 20 18  
Month to date cooling degree days 176 162  
Year to date cooling degree days 2089 2113  
Since 1 June cooling degree days 1266 1236  
Growing Degree Days 34 (Base 50)    
Moisture  
Dew Point 73 °F    
Average Humidity 72    
Maximum Humidity 85    
Minimum Humidity 59    
Precipitation  
Precipitation T in 0.25 in 3.34 in (2003)
Month to date precipitation 1.18 2.19  
Year to date precipitation 34.96 28.14  
Sea Level Pressure  
Sea Level Pressure 30.05 in    
Wind  
Wind Speed 7 mph (SSW)    
Max Wind Speed 15 mph    
Max Gust Speed 19 mph    
Visibility 10 miles    
Events Rain , Thunderstorm    
T = Trace of Precipitation, MM = Missing Value Source: NWS Daily Summary

Daily Weather History Graph

Daily Weather History Graph

Search for Another Location

Airport or City:

Trip Planner

Search our weather history database for the weather conditions in past years. The results will help you decide how hot, cold, wet, or windy it might be!

Date:

Astronomy

Aug. 09, 2014 Rise Set
Actual Time 6:57 AM EDT 8:13 PM EDT
Civil Twilight 6:32 AM EDT 8:38 PM EDT
Nautical Twilight 6:02 AM EDT 9:08 PM EDT
Astronomical Twilight 5:31 AM EDT 9:38 PM EDT
Moon 7:16 PM EDT (8/9) 5:36 AM EDT (8/9)
Length of Visible Light 14h 06m
Length of Day
13h 16m
Waxing Gibbous, 98% of the Moon is Illuminated
Aug 9
Waxing Gibbous
Aug 10
Full
Aug 17
Last Quarter
Aug 25
New
Sep 2
First Quarter

Hourly Weather History & Observations

Time (EDT) Temp. Heat Index Dew Point Humidity Pressure Visibility Wind Dir Wind Speed Gust Speed Precip Events Conditions
12:53 AM 80.6 °F 84.6 °F 71.6 °F 74% 30.04 in 10.0 mi Calm Calm - N/A   Mostly Cloudy
1:53 AM 81.0 °F 85.8 °F 73.0 °F 77% 30.03 in 10.0 mi Calm Calm - N/A   Mostly Cloudy
2:53 AM 80.1 °F 84.2 °F 73.0 °F 79% 30.02 in 10.0 mi ESE 4.6 mph - N/A   Mostly Cloudy
3:53 AM 79.0 °F - 72.0 °F 79% 30.01 in 10.0 mi SSE 4.6 mph - N/A   Mostly Cloudy
4:53 AM 79.0 °F - 72.0 °F 79% 30.02 in 10.0 mi SE 4.6 mph - N/A   Mostly Cloudy
5:53 AM 78.1 °F - 72.0 °F 81% 30.02 in 10.0 mi ESE 3.5 mph - N/A   Scattered Clouds
6:53 AM 78.1 °F - 73.0 °F 84% 30.04 in 10.0 mi Variable 3.5 mph - N/A   Scattered Clouds
7:53 AM 79.0 °F - 73.9 °F 84% 30.06 in 10.0 mi Variable 3.5 mph - N/A   Scattered Clouds
8:53 AM 82.0 °F 88.6 °F 75.0 °F 79% 30.08 in 10.0 mi South 6.9 mph - N/A   Partly Cloudy
9:53 AM 84.9 °F 93.3 °F 75.0 °F 72% 30.09 in 10.0 mi South 9.2 mph - N/A   Scattered Clouds
10:53 AM 87.1 °F 96.3 °F 75.0 °F 67% 30.09 in 10.0 mi South 9.2 mph - N/A   Scattered Clouds
11:53 AM 88.0 °F 96.5 °F 73.9 °F 63% 30.08 in 10.0 mi South 8.1 mph - N/A   Scattered Clouds
1:21 PM 87.1 °F 98.8 °F 77.0 °F 72% 30.08 in 7.0 mi SW 5.8 mph - 0.00 in Rain , Thunderstorm Light Thunderstorms and Rain
1:44 PM 90.0 °F 99.0 °F 73.9 °F 59% 30.07 in 10.0 mi SW 9.2 mph - 0.00 in   Mostly Cloudy
1:53 PM 89.1 °F 98.0 °F 73.9 °F 61% 30.07 in 10.0 mi WSW 10.4 mph - 0.00 in Rain Light Rain
2:53 PM 90.0 °F 96.9 °F 72.0 °F 55% 30.05 in 10.0 mi WSW 9.2 mph - 0.00 in   Mostly Cloudy
3:53 PM 88.0 °F 95.6 °F 73.0 °F 61% 30.03 in 10.0 mi WNW 8.1 mph - N/A   Mostly Cloudy
4:53 PM 88.0 °F 95.6 °F 73.0 °F 61% 30.02 in 10.0 mi North - - N/A   Mostly Cloudy
5:53 PM 89.1 °F 97.0 °F 73.0 °F 59% 30.01 in 10.0 mi SW 9.2 mph - N/A   Mostly Cloudy
6:53 PM 88.0 °F 93.8 °F 71.1 °F 57% 30.01 in 10.0 mi SW 9.2 mph - N/A   Mostly Cloudy
7:53 PM 86.0 °F 91.5 °F 71.1 °F 61% 30.02 in 10.0 mi WSW 8.1 mph - N/A   Mostly Cloudy
8:53 PM 84.9 °F 91.4 °F 73.0 °F 67% 30.03 in 10.0 mi WSW 5.8 mph - N/A   Mostly Cloudy
9:53 PM 84.0 °F 91.2 °F 73.9 °F 72% 30.05 in 10.0 mi SW 6.9 mph - N/A   Mostly Cloudy
10:53 PM 80.6 °F 84.6 °F 71.6 °F 74% 30.06 in 10.0 mi WSW 6.9 mph - N/A Rain Light Rain
11:53 PM 82.0 °F 87.9 °F 73.9 °F 76% 30.06 in 10.0 mi SW 8.1 mph - 0.00 in   Scattered Clouds